This is the latest recevied weather packets stored in our database for station/object KE5VBO-1. If no packets are shown the sender has not sent any weather packets the latest 10 day(s).
| Time | Temp. | Humidity | Pressure | Rain* | Wind** | Luminosity | Snow |
|---|---|---|---|---|---|---|---|
| 1777670140 | 18.33° C | 56% | 1014.2 hPa | 0 mm | - | - | - |
| 1777669210 | 18.33° C | 56% | 1014.4 hPa | 0 mm | - | - | - |
| 1777668367 | 18.33° C | 56% | 1014.8 hPa | 0 mm | - | - | - |
| 1777667465 | 18.33° C | 57% | 1015.1 hPa | 0 mm | - | - | - |
| 1777666530 | 17.78° C | 57% | 1015 hPa | 0 mm | - | - | - |
| 1777665666 | 17.78° C | 57% | 1014.9 hPa | 0 mm | - | - | - |
| 1777664730 | 17.78° C | 57% | 1014.7 hPa | 0 mm | - | - | - |
| 1777663866 | 17.78° C | 57% | 1014.4 hPa | 0 mm | - | - | - |
| 1777662929 | 18.33° C | 57% | 1014.8 hPa | 0 mm | - | - | - |
| 1777662068 | 18.89° C | 57% | 1014.6 hPa | 0 mm | - | - | - |
| 1777661129 | 18.33° C | 57% | 1014.9 hPa | 0 mm | - | - | - |
| 1777660273 | 18.33° C | 57% | 1015 hPa | 0 mm | - | - | - |
| 1777659331 | 17.78° C | 57% | 1015.5 hPa | 0 mm | - | - | - |
| 1777658469 | 17.22° C | 57% | 1015.8 hPa | 0 mm | - | - | - |
| 1777657541 | 17.22° C | 57% | 1016.1 hPa | 0 mm | - | - | - |
| 1777656609 | 17.78° C | 53% | 1016.2 hPa | 0 mm | - | - | - |
| 1777655748 | 17.22° C | 46% | 1016.1 hPa | 0 mm | - | - | - |
| 1777654815 | 17.22° C | 28% | 1016.4 hPa | 0 mm | - | - | - |
| 1777653956 | 16.67° C | 12% | 1016.9 hPa | 0 mm | - | - | - |
| 1777653014 | 15.56° C | 1% | 1017.1 hPa | 0 mm | - | - | - |
| 1777652147 | 15° C | 1% | 1016.8 hPa | 0 mm | - | - | - |
| 1777651214 | 14.44° C | 1% | 1017.1 hPa | 0 mm | - | - | - |
| 1777650351 | 14.44° C | 1% | 1016.9 hPa | 0 mm | - | - | - |
| 1777649428 | 14.44° C | 1% | 1016.4 hPa | 0 mm | - | - | - |
| 1777647610 | 13.89° C | 1% | 1016.7 hPa | 0 mm | - | - | - |
* Rain latest hour (hover to see other rain measurements)
** Current wind speed in m/s (hover to see current wind gust speed)